Погода Кокшетау

Погода Кокшетау : погода сейчас, прогноз погоды и архив. Всё, что Вы хотите узнать о погоде Кокшетау!

Хотите узнать прогноз погоды в Кокчетаве? Тогда Вам сюда: Погода в Кокчетаве

Поиск расширенной информации на нашем сайте:

Другие новости

Новости СМИ2

Главная страница сайта

Новости сайта

02.10.2013

Напоминаем, что на нашем новом сайте вы можете получить высокодетализированные прогнозы погоды по пунктам России, СНГ и мира (включающие важные для авиации метеовеличины, такие как направление и скорость ветра, видимость, явления погоды, количество и форма облачности, нижняя и верхняя граница облачности), а также ознакомиться с разнообразными материалами по авиационной метеорологии и подборкой полезных ссылок на эту тему.

Сайт Метеоцентр.Азия посвящён разработке технологий оптимизации авиаметеорологического обслуживания, включая проектирование и перспективное создание нескольких автоматизированных авиаметеорологических систем:
- система выпуска высокодетальных прогностических карт явлений погоды для нижнего воздушного пространства по России и ближнему зарубежью;
- система верификации прогнозов TAF (выпускаемых синоптиками официальных АМСГ РФ и ближнего зарубежья) и AUTOTAF (выпускаемых сайтом Метеоцентр.Азия) - выявление ошибок, онлайн-сопоставление с фактической погодой METAR, автоматическое внесение коррективов в прогнозы при резком отклонении фактической погоды от прогноза, подсчёт оправдываемости прогнозов по элементам и в целом;
- система обработки, анализа и отображения авиаметеорологической информации для применения провайдерами метеорологической информации.

Рекомендуем: Значимые события сети - http://saparts.ru

Погода Кокшетау - сегодня

Время (UTC), дата Ветер
(°,м/с) 
Видим.   Явления Облачность Т
(°С)
Тd
(°С)
f(%) Тe
(°С)
Pmin
(гПа)
dP
(гПа)
Po
(мм)
O2
(г/м3)
Тmin Tmax R s Состояние
почвы
00 24.03.17 090 (В) н/о    4/0 верхняя 
[Ci fib]
-6 -9.9 74 -9  1022.7  -2.3  745  308           
03 24.03.17 130 (ЮВ) 20000 м    8/0 верхняя 
[Ci fib]
-5 -9.9 68 -5  1020.7  -1.8  744  306        мокрый или
старый снег
50-90% 
06 24.03.17 150 (ЮВ) 20000 м    10/0 верхняя 
[Cs]
+1.2 -8 50 +1  1017.1  -2.9  741  298  -7.8         
09 24.03.17 190 (Ю) 20000 м    10/0 средняя 
[As trans]
+1.8 -5 61 +1  1014.8  -2.1  740  297           
12 24.03.17 270 (З) 20000 м    10/6 600 м верхняя 
[St|Ci fib]
+1.8 -4.6 62 +3  1013.4  -1.4  739  296           
15 24.03.17 230 (ЮЗ) н/о    10/10 600 м 
[Sc]
-0.6 -3.4 81 -1  1013.6  -0.1  739  299    +2.9       
18 24.03.17 270 (З) н/о    10/10 600 м 
[Sc]
-1.4 -4 82 -4  1014.2  0.5  739  300    +2.9       
21 24.03.17 250 (З) н/о  слаб. ливневой снег  10/10 300 м кучево-дожд. 
[Cb cap]
-2.3 -3.8 89 -6  1015.3  740  301           
00 25.03.17 260 (З) н/о  {ливн. осадки}  10/10 600 м 
[Sc]
-3.7 -5.5 87 -8  1017  1.5  741  303           
03 25.03.17 260 (З) 20000 м  в посл. час крупа{ливн. осадки}  10/8 600 м кучево-дожд., средняя 
[Cb cap|Ac As]
-1.9 -3.4 89 -5  1018.8  742  302      0.0  равномерный
сухой снег
100% 
06 25.03.17 270 (З) 20000 м  {ливн. осадки}  10/10 300 м 
[Sc]
+0.2 -1.8 86 -3  1020.3  1.6  744  300  -4.5    0.0     
09 25.03.17 270 (З) 20000 м    9/9 300 м 
[Cu Sc]
+1.6 -3.1 71 -1  1021.5  1.4  745  299           
12 25.03.17 250 (З) 20000 м    3/1 1000 м верхняя 
[Sc|Ci fib]
+2 -4 64 +1  1022.4  0.9  745  299           
15 25.03.17 220 (ЮЗ) н/о    ясно 
-1.9 -4 86 -3  1023.3  0.4  746  303    +2.5  0.0     
18 25.03.17 180 (Ю) н/о    ясно 
-3.8 -5.6 87 -5  1023.9  0.4  746  305    +2.5  0.0     
21 25.03.17 170 (Ю) н/о    ясно 
-4.3 -5.9 89 -6  1023.5  -0.4  746  306           
00 26.03.17 110 (В) н/о    ясно 
-7.2 -8.5 90 -9  1022.8  -1  745  309           
03 26.03.17 160 (Ю) 20000 м    8/4 200 м верхняя 
[St|Ci]
-6.1 -27.7 16 -8  1022.2  -0.5  745  309        мокрый или
старый снег
50-90% 
06 26.03.17 200 (Ю) 20000 м    10/8 300 м верхняя 
[St|Cs]
-3.4 -4.8 90 -6  1020.9  -1  744  304  -7.6         
09 26.03.17 230 (ЮЗ) 20000 м    10/10 600 м кучево-дожд. 
[Cb cap]
-1.2 -4.4 79 -2  1017.3  -3.2  741  301           
12 26.03.17 260 (З) 20000 м    10/8 600 м кучево-дожд., средняя 
[Cb cap|Ac As]
-0.8 -4.3 77 1015.8  -1.4  740  300           
15 26.03.17 220 (ЮЗ) н/о    10/10 600 м 
[Sc]
-1.2 -3.5 84 -2  1015  -0.9  740  300    -0.7       
18 26.03.17 220 (ЮЗ) н/о    8/8 1000 м 
[Sc]
-1.3 -3 88 -3  1014.2  -0.7  739  300    -0.7       
21 26.03.17 230 (ЮЗ) н/о    10/10 1000 м 
[Sc]
-0.8 -2.4 89 -4  1013.7  -0.5  739  299           
00 27.03.17 210 (ЮЗ) н/о    10/10 300 м 
[St]
+0.3 -0.5 94 -3  1013.5  739  297           
Время (UTC), дата Ветер
(°,м/с) 
Видим.   Явления Облачность Т
(°С)
Тd
(°С)
f(%) Тe
(°С)
Pmin
(гПа)
dP
(гПа)
Po
(мм)
O2
(г/м3)
Тmin Tmax R s Состояние
почвы

Для получения пояснительной информации подведите курсор к названию столбца.

ПОГОДА Кокшетау - архив

Всё, что Вы хотите узнать о погоде Кокшетау - удобно и подробно!

Выберите нужную дату (начиная с 1 января 2015* года) и нажмите кнопку "Найти".
Будут отображены архивные сводки погоды по пункту Кокшетау, начиная с указанной даты.


Отображать данные в формате CSV (для использования в таблицах Excel)


Внимание! Наш архив погоды предназначен исключительно для личного некоммерческого использования в познавательных целях. Если Вам необходимы официальные справки о состоянии погоды (для производственных, юридических, коммерческих и т.п. целей), обращайтесь в органы Росгидромета.

*Примечание: данная дата относится к архиву по метеостанциям СССР (Россия, СНГ, Балтия).
Архив по метеостанциям Зарубежной Европы и Азии (кроме Китая) хранится 10 дней, по другим регионам земного шара (Китай, Африка, Америка, Австралия, Океания) - 1 день.

Кокшетау - район местоположения метеостанции


Название, широта, долгота, высота метеостанции:
Кокшетау 53.3°ш. 69.4°д. 229 м над ур. моря [Казахстан]

Дополнительная информация

В oтличие oт бoльшинства пoгoдных сайтoв мы публикуем пoдрoбную метеoинфoрмацию в детальнoм прoфессиoнальнoм фoрмате.

Характеристики температуры и влажнoсти вoздуха измеряются на высoте 2 м в тени вдали oт зданий и деревьев.
Скoрoсть ветра измеряется на высoте 10 м (на урoвне рoста челoвека скoрoсть ветра ниже в 1.5-2 раза). Если метеoстанция нахoдится в гoрoде или в лесу, тo скoрoсть ветра занижена на 2-4 м/с пo сравнению с oткрытым местoм. Скoрoсть ветра над акватoриями крупных рек и oзёр, а также на вершинах хoлмoв на 2-5 м/с выше, чем в oбычных услoвиях.
Атмoсфернoе давление в разных тoчках местнoсти мoжет значительнo oтличаться oт давления на метеoстанции, в зависимoсти oт услoвий рельефа (при пoдъёме на 10 м давление пoнижается примернo на 1 мм рт.ст.).